Location: Doverdale
(52.2833°N, 2.2000°W)
Time: 12:08:34
(UTC+00:00)

Cosmos 1777 Rocket - Pass Details

Date: 29 October 2020
Orbit: 759 x 775 km, 74.0° (Epoch: 24 November)

Event Time Altitude Azimuth Distance (km) Brightness Sun altitude
Rises 18:29:16 0° 336° (NNW) 3,232 7.5 -16.5°
Reaches altitude 10° 18:31:46 10° 343° (NNW) 2,302 6.7 -16.8°
Maximum altitude 18:36:45 44° 56° (NE) 1,050 4.3 -17.6°
Enters shadow 18:38:38 31° 104° (ESE) 1,304 4.6 -17.9°
